User: anonymous   Login
Location: Granada
(37.1830°N, 3.6000°W)
Time: 20:35:45
(UTC+02:00)
Language:

Iridium 70 - Orbit

View from above orbital plane
View from above orbital plane
View from above satellite
View from above satellite

Ground track
Ground track

The orbit data is extracted from the following two-line orbital elements,

1 25342U 98032A   17118.90325541 +.00000153 +00000-0 +47644-4 0  9993
2 25342 086.3978 244.8251 0002227 100.4719 014.3330 14.34216954991754
Epoch (UTC): 28 April 2017 21:40:41
Eccentricity: 0.0002227
inclination: 86.3978°
perigee height: 776 km
apogee height: 779 km
right ascension of ascending node: 244.8251°
argument of perigee: 100.4719°
revolutions per day: 14.34216954
mean anomaly at epoch: 14.3330°
orbit number at epoch: 99175

The dashed part of the orbit path shows where the satellite is in the earth's shadow,  

DLR